Location: Columbia
(38.9520°N, 92.3340°W)
Time: 03:41:18
(UTC-05:00)

SJ-11-01 - Visible Passes

Search period start: 01 October 2016 00:00
Search period end: 11 October 2016 00:00
Orbit: 685 x 702 km, 98.2° (Epoch: 30 September)

Date Brightness Start Highest point End Pass type
(mag) Time Alt. Az. Time Alt. Az. Time Alt. Az.
01 Oct 5.6 21:00:28 28° NNE 21:00:28 28° NNE 21:02:54 10° N visible
01 Oct 7.4 22:39:10 10° NW 22:39:10 10° NW 22:39:12 10° NW visible
02 Oct 6.3 20:02:22 12° NE 20:02:22 12° NE 20:03:22 10° NE visible
02 Oct 6.2 21:41:05 25° NNW 21:41:05 25° NNW 21:43:01 10° NNW visible
03 Oct 5.9 20:42:59 22° NNE 20:42:59 22° NNE 20:45:03 10° N visible
03 Oct 7.2 22:21:42 13° NW 22:21:42 13° NW 22:22:22 10° NW visible
04 Oct 6.1 21:23:37 24° N 21:23:37 24° N 21:25:28 10° N visible
05 Oct 6.2 20:25:31 16° NE 20:25:31 16° NE 20:26:59 10° NNE visible
05 Oct 6.9 22:04:14 15° NW 22:04:14 15° NW 22:05:12 10° NNW visible
06 Oct 6.1 21:06:08 21° N 21:06:08 21° N 21:07:48 10° N visible
07 Oct 6.4 20:08:03 11° NE 20:08:03 11° NE 20:08:34 10° NNE visible
07 Oct 6.7 21:46:45 17° NNW 21:46:45 17° NNW 21:47:50 10° NNW visible
08 Oct 6.2 20:48:40 17° NNE 20:48:40 17° NNE 20:49:59 10° N visible
09 Oct 6.6 21:29:17 17° NNW 21:29:17 17° NNW 21:30:20 10° NNW visible
10 Oct 6.4 20:31:11 14° NNE 20:31:11 14° NNE 20:31:59 10° NNE visible
10 Oct 7.3 22:09:54 10° NNW 22:09:54 10° NNW 22:09:57 10° NNW visible
